Location: Devore Heights
(34.2372°N, 117.4156°W)
Time: 23:36:55
(UTC+00:00)

Transit 4A - Pass Details

Date: 22 September 2024
Orbit: 864 x 978 km, 66.8° (Epoch: 13 October)

Event Time Altitude Azimuth Distance (km) Brightness Sun altitude
Rises 19:59:17 0° 309° (NW) 3,644 10.8 55.4°
Reaches altitude 10° 20:03:26 10° 283° (WNW) 2,709 10.4 55.3°
Maximum altitude 20:06:05 13° 258° (WSW) 2,504 10.5 55.2°
Drops below altitude 10° 20:08:45 10° 233° (SW) 2,716 10.9 55.1°
Sets 20:12:57 0° 207° (SSW) 3,661 11.5 54.9°
